C/2019 B3 ( PanSTARRS )

Japanese version
Home page
Updated on June 8, 2019

---------------------------------------------------------------------

* Profile

Discovery Date January 24, 2019
Magnitude 19.6 mag
Discoverer Pan-STARRS 1 telescope (Haleakala)

* Pictures

* Orbital Elements

Epoch 2021 Jan. 26.0 TT = JDT 2459240.5
T 2021 Jan. 19.96158 TT                                 MPCW
q   6.8238542            (2000.0)            P               Q
z  -0.0003537      Peri.  263.90048     -0.11706797     +0.99280552
 +/-0.0000324      Node   358.42923     +0.00240311     -0.02503614
e   1.0024137      Incl.   66.53733     -0.99312100     -0.11709137
From 67 observations 2019 Jan. 24-Apr. 28, mean residual 0".5.

* Magnitudes Graph

        m1 = 5.5 + 5 log d + 10.0 log r

---------------------------------------------------------------------

The orbital elements are published on M.P.E.C. 2019-L24.
The magnitudes graphs are made with Comet for Windows.

---------------------------------------------------------------------

Copyright(C) Seiichi Yoshida (comet@aerith.net). All rights reserved.